CST,Max TemperatureF,Mean TemperatureF,Min TemperatureF,Max Dew PointF,MeanDew PointF,Min DewpointF,Max Humidity, Mean Humidity, Min Humidity, Max Sea Level PressureIn, Mean Sea Level PressureIn, Min Sea Level PressureIn, Max VisibilityMiles, Mean VisibilityMiles, Min VisibilityMiles, Max Wind SpeedMPH, Mean Wind SpeedMPH, Max Gust SpeedMPH,PrecipitationIn, CloudCover, Events, WindDirDegrees
2012-11-1,39,33,26,33,24,20,85,74,63,30.20,30.15,30.09,10,10,10,22,13,28,0.00,7,,358
2012-11-2,37,33,28,30,26,22,92,78,64,30.21,30.17,30.13,10,8,0,8,3,10,0.09,6,Fog-Snow,36
2012-11-3,38,35,31,33,31,28,92,84,76,30.27,30.22,30.18,10,9,6,12,4,15,T,8,,55
2012-11-4,40,37,33,34,32,30,89,83,76,30.26,30.22,30.17,10,8,4,7,2,8,0.00,8,,18
2012-11-5,45,39,33,36,33,31,96,81,65,30.26,30.05,29.75,10,8,2,22,9,26,0.09,7,Rain-Snow,210
2012-11-6,45,41,36,37,34,32,92,81,70,30.05,29.90,29.74,10,10,9,32,16,40,0.00,7,,305
2012-11-7,48,37,26,35,32,24,92,74,56,30.12,30.00,29.83,10,10,10,26,10,36,0.00,2,,175
2012-11-8,43,38,33,36,32,28,82,76,70,30.18,30.00,29.81,10,10,9,28,16,39,0.00,6,,347
2012-11-9,40,36,31,33,28,26,85,78,70,30.19,30.08,29.92,10,10,10,21,14,28,0.00,8,,46
2012-11-10,40,36,31,38,35,28,92,86,79,29.89,29.65,29.50,10,3,1,24,11,30,0.16,8,Rain-Snow,47
2012-11-11,31,25,19,26,16,10,92,80,68,29.90,29.79,29.62,10,7,0,24,18,31,0.04,8,Fog-Snow,274
2012-11-12,23,18,13,15,11,7,80,74,67,30.26,30.08,29.85,10,9,4,24,14,29,0.01,6,Snow,275
2012-11-13,33,24,14,26,19,9,85,76,66,30.29,30.25,30.21,10,9,2,10,5,12,0.00,4,,172
2012-11-14,47,33,18,36,23,14,92,79,65,30.25,30.17,30.08,10,6,0,17,7,20,0.00,3,Fog,182
2012-11-15,36,29,21,30,21,16,89,73,56,30.51,30.38,30.09,10,10,10,20,7,22,0.00,0,,331
2012-11-16,42,31,20,26,18,15,81,60,38,30.50,30.30,30.10,10,10,10,28,17,38,0.00,0,,160
2012-11-17,51,43,34,36,32,27,82,69,56,30.12,30.08,30.02,10,10,6,20,9,25,0.00,1,,143
2012-11-18,53,43,33,38,34,29,89,72,54,30.02,29.97,29.90,10,10,7,24,10,35,0.00,1,,158
2012-11-19,50,37,23,35,30,19,92,77,61,30.19,30.06,29.90,10,9,0,17,8,23,0.00,0,,287
2012-11-20,51,36,20,31,23,16,92,68,44,30.19,30.09,29.91,10,5,0,20,9,25,0.00,2,Fog,160
2012-11-21,59,45,31,37,32,27,82,63,43,29.91,29.76,29.55,10,10,7,21,7,26,0.00,0,,160
2012-11-22,39,27,15,33,21,9,89,81,72,30.32,29.98,29.55,10,4,0,32,20,39,0.20,7,Fog-Snow,325
2012-11-23,18,12,5,10,8,1,80,74,67,30.55,30.43,30.27,10,6,2,32,13,38,T,7,Snow,323
2012-11-24,31,17,3,24,14,-1,87,78,68,30.41,30.02,29.79,10,10,10,23,11,29,T,7,,164
2012-11-25,30,18,6,22,14,1,81,71,61,30.37,30.09,29.96,10,9,3,24,13,29,T,7,Snow,331
2012-11-26,24,12,0,12,5,-5,87,71,54,30.52,30.39,30.23,10,10,10,16,8,20,0.00,2,,232
2012-11-27,27,21,15,21,17,12,81,72,62,30.30,30.20,30.10,10,10,8,14,5,16,0.00,7,,345
2012-11-28,37,29,20,26,21,15,84,72,59,30.33,30.19,30.06,10,9,5,21,9,24,0.00,4,,150
2012-11-29,27,21,15,21,15,9,84,76,68,30.24,30.17,30.11,10,10,8,21,12,23,0.00,7,,26
2012-11-30,36,32,27,30,25,21,82,79,75,30.21,30.07,29.85,10,6,4,23,11,30,0.00,8,,147